KF4ERV-4 Weather Reports


time (UTC)temp
C
wind
direction
speed
KPH
gust
KPH
rain 1hr
cm
rain 24hr
cm
rain mn
cm
humidity
%
barometer
mb
20260504004450 16 275 0.0 0.0 0.00 0.00 0.00 55 1014.1
20260504004206 16 257 0.0 0.0 0.00 0.00 0.00 53 1014.0
20260504003956 16 257 0.0 0.0 0.00 0.00 0.00 53 1014.0
20260504003716 16 295 0.0 1.6 0.00 0.00 0.00 53 1014.0
20260504003445 16 295 0.0 1.6 0.00 0.00 0.00 53 1014.0
20260504003226 16 284 0.0 1.6 0.00 0.00 0.00 52 1014.0
20260504002948 16 284 0.0 1.6 0.00 0.00 0.00 52 1014.0
20260504002737 16 274 0.0 1.6 0.00 0.00 0.00 51 1014.0
20260504002451 16 274 0.0 1.6 0.00 0.00 0.00 51 1014.0
20260504002246 16 241 0.0 0.0 0.00 0.00 0.00 50 1014.0
20260504001954 16 241 0.0 0.0 0.00 0.00 0.00 50 1014.0
20260504001756 16 286 0.0 0.0 0.00 0.00 0.00 50 1014.0
20260504001446 16 286 0.0 0.0 0.00 0.00 0.00 50 1014.0
20260504001307 17 272 0.0 0.0 0.00 0.00 0.00 50 1014.0
20260504000949 17 272 0.0 0.0 0.00 0.00 0.00 50 1014.0
20260504000816 17 260 0.0 0.0 0.00 0.00 0.00 48 1014.0
20260504000452 17 260 0.0 0.0 0.00 0.00 0.00 48 1014.0
20260504000326 17 241 0.0 0.0 0.00 0.00 0.00 48 1014.0
20260503235944 17 241 0.0 0.0 0.00 0.00 0.00 48 1014.0
20260503235836 17 249 0.0 1.6 0.00 0.00 0.00 48 1014.0
20260503235447 17 249 0.0 1.6 0.00 0.00 0.00 48 1014.0
20260503235346 17 267 0.0 1.6 0.00 0.00 0.00 47 1014.0
20260503235014 17 250 0.0 0.0 0.00 0.00 0.00 46 1014.0
20260503234950 17 267 0.0 1.6 0.00 0.00 0.00 47 1014.0
20260503234856 17 246 0.0 0.0 0.00 0.00 0.00 47 1014.0
20260503234453 17 246 0.0 0.0 0.00 0.00 0.00 47 1014.0
20260503234407 17 250 0.0 0.0 0.00 0.00 0.00 46 1014.0
20260503233945 17 250 0.0 0.0 0.00 0.00 0.00 46 1014.0
20260503233916 17 201 0.0 0.0 0.00 0.00 0.00 45 1014.0
20260503233448 17 201 0.0 0.0 0.00 0.00 0.00 45 1014.0
20260503233426 17 202 0.0 0.0 0.00 0.00 0.00 45 1014.0
20260503232952 17 202 0.0 0.0 0.00 0.00 0.00 45 1014.0
20260503232446 17 305 0.0 0.0 0.00 0.00 0.00 45 1014.0
20260503231946 17 254 0.0 0.0 0.00 0.00 0.00 46 1014.0
20260503231656 17 199 0.0 1.6 0.00 0.00 0.00 43 1015.0
20260503231449 17 238 0.0 0.0 0.00 0.00 0.00 45 1014.0
20260503230952 17 295 0.0 1.6 0.00 0.00 0.00 45 1014.0
20260503230607 17 219 0.0 1.6 0.00 0.00 0.00 44 1014.2
20260503230526 17 219 0.0 1.6 0.00 0.00 0.00 44 1014.2
20260503230444 17 219 0.0 1.6 0.00 0.00 0.00 44 1014.2
20260503225949 17 255 0.0 1.6 0.00 0.00 0.00 43 1014.9
20260503225737 17 192 0.0 0.0 0.00 0.00 0.00 42 1015.0
20260503225450 17 199 0.0 1.6 0.00 0.00 0.00 43 1015.0
20260503225057 17 192 0.0 0.0 0.00 0.00 0.00 42 1015.0
20260503225032 17 210 0.0 0.0 0.00 0.00 0.00 42 1015.0
20260503224953 17 192 0.0 0.0 0.00 0.00 0.00 42 1015.0
20260503224738 17 204 0.0 0.0 0.00 0.00 0.00 43 1015.0
20260503224606 17 204 0.0 0.0 0.00 0.00 0.00 43 1015.0
20260503224445 17 204 0.0 0.0 0.00 0.00 0.00 43 1015.0
20260503224118 17 210 0.0 0.0 0.00 0.00 0.00 42 1015.0
20260503224005 17 214 0.0 0.0 0.00 0.00 0.00 41 1015.0
20260503223948 17 210 0.0 0.0 0.00 0.00 0.00 42 1015.0
20260503223810 17 214 0.0 0.0 0.00 0.00 0.00 41 1015.0
20260503223626 17 214 0.0 0.0 0.00 0.00 0.00 41 1015.0
20260503223534 17 214 0.0 0.0 0.00 0.00 0.00 41 1015.0
20260503223451 17 214 0.0 0.0 0.00 0.00 0.00 41 1015.0
20260503223239 17 271 0.0 0.0 0.00 0.00 0.00 41 1015.0
20260503223034 17 271 0.0 0.0 0.00 0.00 0.00 41 1015.0
20260503222958 17 271 0.0 0.0 0.00 0.00 0.00 41 1015.0
20260503222841 17 205 0.0 1.6 0.00 0.00 0.00 41 1015.1
20260503222737 17 205 0.0 1.6 0.00 0.00 0.00 41 1015.1
20260503222647 17 205 0.0 1.6 0.00 0.00 0.00 41 1015.1
20260503222447 17 205 0.0 1.6 0.00 0.00 0.00 41 1015.1
20260503222441 17 192 0.0 1.6 0.00 0.00 0.00 40 1015.5
20260503222157 17 192 0.0 1.6 0.00 0.00 0.00 40 1015.5
20260503221949 17 192 0.0 1.6 0.00 0.00 0.00 40 1015.5
20260503221706 17 218 0.0 0.0 0.00 0.00 0.00 40 1015.9
20260503221501 17 218 0.0 0.0 0.00 0.00 0.00 40 1015.9
20260503221216 17 199 0.0 0.0 0.00 0.00 0.00 40 1015.3
20260503220945 17 199 0.0 0.0 0.00 0.00 0.00 40 1015.3
20260503220727 17 203 0.0 0.0 0.00 0.00 0.00 39 1015.0
20260503220519 17 194 0.0 0.0 0.00 0.00 0.00 39 1015.1
20260503220448 17 203 0.0 0.0 0.00 0.00 0.00 39 1015.0
20260503220237 17 194 0.0 0.0 0.00 0.00 0.00 39 1015.1
20260503215950 17 194 0.0 0.0 0.00 0.00 0.00 39 1015.1
20260503215748 18 189 0.0 0.0 0.00 0.00 0.00 39 1015.9
20260503215456 18 204 0.0 0.0 0.00 0.00 0.00 38 1016.0
20260503215454 18 189 0.0 0.0 0.00 0.00 0.00 39 1015.9
20260503215256 18 237 0.0 0.0 0.00 0.00 0.00 38 1016.0
20260503214947 18 237 0.0 0.0 0.00 0.00 0.00 38 1016.0
20260503214806 18 204 0.0 0.0 0.00 0.00 0.00 38 1016.0
20260503214450 18 204 0.0 0.0 0.00 0.00 0.00 38 1016.0
20260503214316 18 253 0.0 0.0 0.00 0.00 0.00 37 1016.0
20260503214032 18 253 0.0 0.0 0.00 0.00 0.00 37 1016.0
20260503213952 18 253 0.0 0.0 0.00 0.00 0.00 37 1016.0
20260503213907 18 291 0.0 0.0 0.00 0.00 0.00 36 1016.0
20260503213825 18 291 0.0 0.0 0.00 0.00 0.00 36 1016.0
20260503213337 18 265 0.0 0.0 0.00 0.00 0.00 36 1016.0
20260503212946 18 265 0.0 0.0 0.00 0.00 0.00 36 1016.0
20260503212846 18 255 0.0 0.0 0.00 0.00 0.00 37 1016.1
20260503212448 18 255 0.0 0.0 0.00 0.00 0.00 37 1016.1
20260503212356 18 193 0.0 0.0 0.00 0.00 0.00 37 1016.7
20260503211953 18 193 0.0 0.0 0.00 0.00 0.00 37 1016.7
20260503211905 17 196 0.0 0.0 0.00 0.00 0.00 37 1016.3
20260503211416 17 193 0.0 0.0 0.00 0.00 0.00 37 1016.0
20260503210946 17 193 0.0 0.0 0.00 0.00 0.00 37 1016.0
20260503210926 17 242 0.0 0.0 0.00 0.00 0.00 37 1016.0
20260503210450 17 242 0.0 0.0 0.00 0.00 0.00 37 1016.0
20260503205946 17 178 0.0 0.0 0.00 0.00 0.00 38 1016.0
20260503205905 17 180 0.0 0.0 0.00 0.00 0.00 37 1016.0
20260503205745 17 185 0.0 1.6 0.00 0.00 0.00 36 1017.0
20260503205445 17 180 0.0 0.0 0.00 0.00 0.00 37 1016.0
20260503205020 17 193 0.0 0.0 0.00 0.00 0.00 37 1016.6
20260503204948 17 193 0.0 0.0 0.00 0.00 0.00 37 1016.6
20260503204806 17 185 0.0 1.6 0.00 0.00 0.00 36 1017.0
20260503204450 17 200 0.0 1.6 0.00 0.00 0.00 37 1017.0
20260503204026 17 185 0.0 1.6 0.00 0.00 0.00 36 1017.0
20260503203954 17 185 0.0 1.6 0.00 0.00 0.00 36 1017.0
20260503203737 17 181 0.0 1.6 0.00 0.00 0.00 36 1017.0
20260503203659 17 292 0.0 0.0 0.00 0.00 0.00 36 1017.0
20260503203448 17 248 0.0 0.0 0.00 0.00 0.00 37 1017.0
20260503203046 17 209 0.0 1.6 0.00 0.00 0.00 36 1017.0
20260503202556 17 181 0.0 1.6 0.00 0.00 0.00 36 1017.0
20260503202452 17 181 0.0 1.6 0.00 0.00 0.00 36 1017.0
20260503202106 17 292 0.0 0.0 0.00 0.00 0.00 36 1017.0
20260503201945 17 292 0.0 0.0 0.00 0.00 0.00 36 1017.0
20260503201615 17 203 0.0 0.0 0.00 0.00 0.00 37 1017.0
20260503201610 17 216 0.0 0.0 0.00 0.00 0.00 38 1017.0
20260503201446 17 203 0.0 0.0 0.00 0.00 0.00 37 1017.0
20260503201125 17 196 0.0 0.0 0.00 0.00 0.00 36 1017.0
20260503201017 18 241 0.0 0.0 0.00 0.00 0.00 36 1017.0
20260503200949 17 196 0.0 0.0 0.00 0.00 0.00 36 1017.0
20260503200636 18 241 0.0 0.0 0.00 0.00 0.00 36 1017.0
20260503200452 18 241 0.0 0.0 0.00 0.00 0.00 36 1017.0
20260503200146 17 201 0.0 0.0 0.00 0.00 0.00 36 1017.0
20260503195945 17 201 0.0 0.0 0.00 0.00 0.00 36 1017.0
20260503195656 17 216 0.0 0.0 0.00 0.00 0.00 38 1017.0
20260503195206 17 187 0.0 0.0 0.00 0.00 0.00 37 1017.0
20260503194951 17 187 0.0 0.0 0.00 0.00 0.00 37 1017.0
20260503194717 17 182 0.0 0.0 0.00 0.00 0.00 37 1017.7
20260503194454 17 182 0.0 0.0 0.00 0.00 0.00 37 1017.7
20260503194226 17 200 0.0 0.0 0.00 0.00 0.00 38 1018.0
20260503193945 17 200 0.0 0.0 0.00 0.00 0.00 38 1018.0
20260503193736 17 186 0.0 0.0 0.00 0.00 0.00 37 1018.0
20260503193450 17 186 0.0 0.0 0.00 0.00 0.00 37 1018.0
20260503192951 17 203 0.0 0.0 0.00 0.00 0.00 36 1018.0
20260503192757 17 202 0.0 0.0 0.00 0.00 0.00 37 1018.0
20260503192445 17 202 0.0 0.0 0.00 0.00 0.00 37 1018.0
20260503192306 17 201 0.0 0.0 0.00 0.00 0.00 37 1018.3
20260503191946 17 201 0.0 0.0 0.00 0.00 0.00 37 1018.3
20260503191816 18 240 0.0 0.0 0.00 0.00 0.00 37 1018.2
20260503191450 18 240 0.0 0.0 0.00 0.00 0.00 37 1018.2
20260503191325 17 246 0.0 0.0 0.00 0.00 0.00 36 1018.9
20260503190952 17 246 0.0 0.0 0.00 0.00 0.00 36 1018.9
20260503190836 17 264 0.0 0.0 0.00 0.00 0.00 36 1019.0
20260503190444 17 264 0.0 0.0 0.00 0.00 0.00 36 1019.0
20260503190345 17 222 0.0 0.0 0.00 0.00 0.00 36 1019.0
20260503190031 17 222 0.0 0.0 0.00 0.00 0.00 36 1019.0
20260503185956 18 244 0.0 0.0 0.00 0.00 0.00 36 1019.0
20260503185948 17 222 0.0 0.0 0.00 0.00 0.00 36 1019.0
20260503185856 18 244 0.0 0.0 0.00 0.00 0.00 36 1019.0
20260503185450 18 244 0.0 0.0 0.00 0.00 0.00 36 1019.0
20260503185406 17 258 0.0 0.0 0.00 0.00 0.00 37 1019.0
20260503184954 17 258 0.0 0.0 0.00 0.00 0.00 37 1019.0
20260503184916 17 183 0.0 0.0 0.00 0.00 0.00 37 1019.0
20260503184448 17 183 0.0 0.0 0.00 0.00 0.00 37 1019.0
20260503184426 17 184 0.0 0.0 0.00 0.00 0.00 36 1019.0
20260503183948 17 184 0.0 0.0 0.00 0.00 0.00 36 1019.0
20260503183451 17 203 0.0 0.0 0.00 0.00 0.00 36 1019.0
20260503182955 17 211 0.0 0.0 0.00 0.00 0.00 35 1019.0
20260503182446 17 203 0.0 0.0 0.00 0.00 0.00 36 1019.0
20260503181949 17 199 0.0 1.6 0.00 0.00 0.00 36 1019.0
20260503181525 17 200 0.0 1.6 0.00 0.00 0.00 37 1019.0
20260503181452 17 200 0.0 1.6 0.00 0.00 0.00 37 1019.0
20260503180946 17 205 0.0 0.0 0.00 0.00 0.00 37 1019.0
20260503180545 16 187 0.0 0.0 0.00 0.00 0.00 36 1019.0
20260503180448 16 187 0.0 0.0 0.00 0.00 0.00 36 1019.0
20260503180056 17 231 0.0 1.6 0.00 0.00 0.00 37 1019.2
20260503175950 17 231 0.0 1.6 0.00 0.00 0.00 37 1019.2
20260503175605 16 185 0.0 1.6 0.00 0.00 0.00 36 1019.9
20260503175453 16 185 0.0 1.6 0.00 0.00 0.00 36 1019.9
20260503175115 16 193 0.0 0.0 0.00 0.00 0.00 36 1020.0
20260503174945 16 193 0.0 0.0 0.00 0.00 0.00 36 1020.0
20260503174843 16 188 0.0 0.0 0.00 0.00 0.00 37 1020.0
20260503174625 16 188 0.0 0.0 0.00 0.00 0.00 37 1020.0
20260503174448 16 188 0.0 0.0 0.00 0.00 0.00 37 1020.0
20260503174135 17 184 0.0 0.0 0.00 0.00 0.00 37 1020.0
20260503173951 17 184 0.0 0.0 0.00 0.00 0.00 37 1020.0
20260503173645 17 241 0.0 0.0 0.00 0.00 0.00 37 1020.0
20260503173446 17 241 0.0 0.0 0.00 0.00 0.00 37 1020.0
20260503172948 17 227 0.0 0.0 0.00 0.00 0.00 37 1020.0
20260503172706 17 242 0.0 0.0 0.00 0.00 0.00 37 1020.0
20260503172516 17 273 0.0 0.0 0.00 0.00 0.00 36 1020.0
20260503172215 17 227 0.0 0.0 0.00 0.00 0.00 37 1020.0
20260503172006 17 273 0.0 0.0 0.00 0.00 0.00 36 1020.0
20260503171954 17 227 0.0 0.0 0.00 0.00 0.00 37 1020.0
20260503171728 17 278 0.0 0.0 0.00 0.00 0.00 37 1020.0
20260503171603 17 273 0.0 0.0 0.00 0.00 0.00 36 1020.0
20260503171445 17 273 0.0 0.0 0.00 0.00 0.00 36 1020.0
20260503171337 17 278 0.0 0.0 0.00 0.00 0.00 37 1020.0
20260503171236 17 278 0.0 0.0 0.00 0.00 0.00 37 1020.0
20260503171228 16 280 0.0 0.0 0.00 0.00 0.00 41 1021.0
20260503171027 17 255 0.0 0.0 0.00 0.00 0.00 39 1020.2
20260503170947 17 278 0.0 0.0 0.00 0.00 0.00 37 1020.0
20260503170745 17 255 0.0 0.0 0.00 0.00 0.00 39 1020.2
20260503170450 17 255 0.0 0.0 0.00 0.00 0.00 39 1020.2
20260503170256 16 259 0.0 1.6 0.00 0.00 0.00 39 1020.8
20260503150955 13 204 0.0 0.0 0.00 0.00 0.00 49 1021.9
20260503150655 13 246 0.0 0.0 0.00 0.00 0.00 52 1021.9
20260503150445 13 246 0.0 0.0 0.00 0.00 0.00 52 1021.9
20260503150205 13 242 0.0 0.0 0.00 0.00 0.00 54 1021.6
20260503131055 7 235 0.0 0.0 0.00 0.00 0.00 79 1022.0
20260503130948 7 235 0.0 0.0 0.00 0.00 0.00 79 1022.0
20260503130843 7 261 0.0 0.0 0.00 0.00 0.00 73 1021.9
20260503130605 7 283 0.0 0.0 0.00 0.00 0.00 71 1021.9
20260503130451 7 283 0.0 0.0 0.00 0.00 0.00 71 1021.9
20260503130116 7 261 0.0 0.0 0.00 0.00 0.00 73 1021.9
20260503120139 3 259 0.0 0.0 0.00 0.00 0.00 29 1021.0
20260503110703 2 292 0.0 0.0 0.00 0.00 0.00 38 1021.0
20260503110446 2 292 0.0 0.0 0.00 0.00 0.00 37 1021.0
20260503100224 2 292 0.0 0.0 0.00 0.00 0.00 44 1021.0
20260503090451 3 292 0.0 0.0 0.00 0.00 0.00 46 1021.0
20260503081604 3 315 0.0 0.0 0.00 0.00 0.00 50 1020.1
20260503081449 3 315 0.0 0.0 0.00 0.00 0.00 50 1020.1
20260503081114 3 315 0.0 0.0 0.00 0.00 0.00 51 1020.1
20260503080951 3 315 0.0 0.0 0.00 0.00 0.00 51 1020.1
20260503080624 3 315 0.0 0.0 0.00 0.00 0.00 53 1020.1
20260503080531 3 315 0.0 0.0 0.00 0.00 0.00 54 1020.0
20260503080443 3 315 0.0 0.0 0.00 0.00 0.00 53 1020.1
20260503080135 3 315 0.0 0.0 0.00 0.00 0.00 54 1020.0
20260503072943 3 315 0.0 0.0 0.00 0.00 0.00 58 1020.0
20260503072855 3 315 0.0 0.0 0.00 0.00 0.00 58 1020.0
20260503072757 3 315 0.0 0.0 0.00 0.00 0.00 58 1020.0
20260503072744 3 315 0.0 0.0 0.00 0.00 0.00 59 1020.0
20260503072445 3 315 0.0 0.0 0.00 0.00 0.00 59 1020.0
20260503072254 3 315 0.0 0.0 0.00 0.00 0.00 58 1020.0
20260503072158 3 315 0.0 0.0 0.00 0.00 0.00 58 1020.0
20260503071948 3 315 0.0 0.0 0.00 0.00 0.00 58 1020.0
20260503071849 3 315 0.0 0.0 0.00 0.00 0.00 58 1020.0
20260503071804 3 315 0.0 0.0 0.00 0.00 0.00 58 1020.0
20260503071451 3 315 0.0 0.0 0.00 0.00 0.00 58 1020.0
20260503071353 3 315 0.0 0.0 0.00 0.00 0.00 59 1020.0
20260503071314 3 315 0.0 0.0 0.00 0.00 0.00 59 1020.0
20260503071016 3 315 0.0 0.0 0.00 0.00 0.00 59 1020.0
20260503070943 3 315 0.0 0.0 0.00 0.00 0.00 59 1020.0
20260503070931 3 315 0.0 0.0 0.00 0.00 0.00 59 1020.0
20260503070825 3 315 0.0 0.0 0.00 0.00 0.00 59 1020.0
20260503070606 3 315 0.0 0.0 0.00 0.00 0.00 59 1020.0
20260503070541 3 315 0.0 0.0 0.00 0.00 0.00 61 1020.0
20260503070446 3 315 0.0 0.0 0.00 0.00 0.00 59 1020.0
20260503070335 3 315 0.0 0.0 0.00 0.00 0.00 61 1020.0
20260503070200 3 315 0.0 0.0 0.00 0.00 0.00 61 1020.0
20260503070115 3 315 0.0 0.0 0.00 0.00 0.00 61 1020.0
20260503055105 5 315 0.0 0.0 0.00 0.00 0.00 74 1020.8
20260503054955 5 315 0.0 0.0 0.00 0.00 0.00 82 1020.6
20260503054947 5 315 0.0 0.0 0.00 0.00 0.00 74 1020.8
20260503054614 5 315 0.0 0.0 0.00 0.00 0.00 78 1020.7
20260503054453 5 315 0.0 0.0 0.00 0.00 0.00 78 1020.7
20260503054300 5 315 0.0 0.0 0.00 0.00 0.00 83 1020.8
20260503054200 5 315 0.0 0.0 0.00 0.00 0.00 83 1020.8
20260503054124 5 315 0.0 0.0 0.00 0.00 0.00 82 1020.6
20260503054031 5 315 0.0 0.0 0.00 0.00 0.00 82 1020.6
20260503053942 5 315 0.0 0.0 0.00 0.00 0.00 82 1020.6
20260503053726 5 315 0.0 0.0 0.00 0.00 0.00 83 1020.8
20260503053635 5 315 0.0 0.0 0.00 0.00 0.00 83 1020.8
20260503053445 5 315 0.0 0.0 0.00 0.00 0.00 83 1020.8
20260503053408 5 297 0.0 0.0 0.00 0.00 0.00 84 1020.7
20260503053145 5 297 0.0 0.0 0.00 0.00 0.00 84 1020.7
20260503052654 5 292 0.0 0.0 0.00 0.00 0.00 85 1020.5
20260503052555 5 315 0.0 0.0 0.00 0.00 0.00 89 1020.0
20260503052451 5 292 0.0 0.0 0.00 0.00 0.00 85 1020.5
20260503052204 5 298 0.0 0.0 0.00 0.00 0.00 87 1020.1
20260503051943 5 298 0.0 0.0 0.00 0.00 0.00 87 1020.1
20260503051714 5 315 0.0 0.0 0.00 0.00 0.00 87 1020.3
20260503051511 5 315 0.0 0.0 0.00 0.00 0.00 89 1020.0
20260503051446 5 315 0.0 0.0 0.00 0.00 0.00 87 1020.3
20260503051224 5 315 0.0 0.0 0.00 0.00 0.00 89 1020.0
20260503050950 5 315 0.0 0.0 0.00 0.00 0.00 89 1020.0
20260503050945 6 294 0.0 0.0 0.00 0.00 0.00 90 1020.2
20260503050734 6 294 0.0 0.0 0.00 0.00 0.00 90 1020.2
20260503050452 6 294 0.0 0.0 0.00 0.00 0.00 90 1020.2
20260503050245 6 292 0.0 0.0 0.00 0.00 0.00 90 1020.1
20260503045951 6 292 0.0 0.0 0.00 0.00 0.00 90 1020.1
20260503045754 6 292 0.0 0.0 0.00 0.00 0.00 90 1020.1
20260503045452 6 292 0.0 0.0 0.00 0.00 0.00 93 1020.0
20260503045447 6 292 0.0 0.0 0.00 0.00 0.00 90 1020.1
20260503045306 6 292 0.0 0.0 0.00 0.00 0.00 92 1020.2
20260503045241 7 292 0.0 0.0 0.00 0.00 0.00 93 1020.2
20260503044950 6 292 0.0 0.0 0.00 0.00 0.00 92 1020.2
20260503044442 6 292 0.0 0.0 0.00 0.00 0.00 93 1020.1
20260503044324 6 292 0.0 0.0 0.00 0.00 0.00 93 1020.0
20260503044039 6 292 0.0 0.0 0.00 0.00 0.00 93 1020.0
20260503043945 6 292 0.0 0.0 0.00 0.00 0.00 93 1020.0
20260503043847 6 292 0.0 0.0 0.00 0.00 0.00 93 1020.1
20260503043814 6 292 0.0 0.0 0.00 0.00 0.00 93 1020.1
20260503043448 6 292 0.0 0.0 0.00 0.00 0.00 93 1020.1
20260503043409 7 292 0.0 0.0 0.00 0.00 0.00 92 1020.0
20260503043344 7 292 0.0 0.0 0.00 0.00 0.00 93 1020.2
20260503042952 7 292 0.0 0.0 0.00 0.00 0.00 93 1020.2
20260503042854 7 292 0.0 0.0 0.00 0.00 0.00 92 1020.0
20260503042455 7 292 0.0 0.0 0.00 0.00 0.00 90 1020.0
20260503042443 7 292 0.0 0.0 0.00 0.00 0.00 92 1020.0
20260503042404 7 292 0.0 0.0 0.00 0.00 0.00 90 1020.0
20260503041914 7 292 0.0 0.0 0.00 0.00 0.00 90 1020.0
20260503041449 7 292 0.0 0.0 0.00 0.00 0.00 90 1020.0
20260503041424 7 292 0.0 0.0 0.00 0.00 0.00 87 1020.0
20260503040952 7 292 0.0 0.0 0.00 0.00 0.00 87 1020.0
20260503040445 7 292 0.0 0.0 0.00 0.00 0.00 86 1020.0
20260503035954 7 306 0.0 0.0 0.00 0.00 0.00 85 1020.0
20260503035451 7 305 0.0 0.0 0.00 0.00 0.00 85 1020.0
20260503035155 7 311 0.0 0.0 0.00 0.00 0.00 82 1020.0
20260503035143 7 311 0.0 0.0 0.00 0.00 0.00 84 1020.0
20260503035042 7 311 0.0 0.0 0.00 0.00 0.00 82 1020.0
20260503035014 7 311 0.0 0.0 0.00 0.00 0.00 84 1020.0
20260503034942 7 311 0.0 0.0 0.00 0.00 0.00 84 1020.0
20260503034524 7 303 0.0 0.0 0.00 0.00 0.00 83 1020.0
20260503034446 7 303 0.0 0.0 0.00 0.00 0.00 83 1020.0
20260503034034 7 311 0.0 0.0 0.00 0.00 0.00 82 1020.0
20260503033948 7 311 0.0 0.0 0.00 0.00 0.00 82 1020.0
20260503033604 7 298 0.0 0.0 0.00 0.00 0.00 81 1020.0
20260503033527 7 298 0.0 0.0 0.00 0.00 0.00 81 1020.0
20260503033452 7 298 0.0 0.0 0.00 0.00 0.00 81 1020.0
20260503033149 7 293 0.0 0.0 0.00 0.00 0.00 80 1020.0
20260503033054 7 293 0.0 0.0 0.00 0.00 0.00 80 1020.0
20260503032604 8 309 0.0 0.0 0.00 0.00 0.00 79 1020.0
20260503032447 8 309 0.0 0.0 0.00 0.00 0.00 79 1020.0
20260503032421 8 301 0.0 0.0 0.00 0.00 0.00 77 1020.0
20260503032114 8 297 0.0 0.0 0.00 0.00 0.00 79 1020.0
20260503031949 8 297 0.0 0.0 0.00 0.00 0.00 79 1020.0
20260503031624 8 309 0.0 0.0 0.00 0.00 0.00 78 1020.0
20260503031452 8 309 0.0 0.0 0.00 0.00 0.00 78 1020.0
20260503031134 8 301 0.0 0.0 0.00 0.00 0.00 77 1020.0
20260503031024 8 314 0.0 0.0 0.00 0.00 0.00 75 1020.0
20260503030944 8 301 0.0 0.0 0.00 0.00 0.00 77 1020.0
20260503030638 8 315 0.0 0.0 0.00 0.00 0.00 75 1020.0
20260503030447 8 315 0.0 0.0 0.00 0.00 0.00 75 1020.0
20260503030154 8 314 0.0 0.0 0.00 0.00 0.00 75 1020.0
20260503025950 8 314 0.0 0.0 0.00 0.00 0.00 75 1020.0
20260503025811 9 315 0.0 0.0 0.00 0.00 0.00 70 1020.0
20260503025704 8 314 0.0 0.0 0.00 0.00 0.00 72 1020.0
20260503025448 8 316 0.0 0.0 0.00 0.00 0.00 71 1020.0
20260503025442 8 314 0.0 0.0 0.00 0.00 0.00 72 1020.0
20260503025214 8 316 0.0 0.0 0.00 0.00 0.00 71 1020.0
20260503025027 8 316 0.0 0.0 0.00 0.00 0.00 71 1020.0
20260503024945 8 316 0.0 0.0 0.00 0.00 0.00 71 1020.0
20260503024724 9 315 0.0 0.0 0.00 0.00 0.00 70 1020.0
20260503024235 9 315 0.0 0.0 0.00 0.00 0.00 70 1020.0
20260503024023 10 315 0.0 0.0 0.00 0.00 0.00 69 1020.0
20260503023951 9 315 0.0 0.0 0.00 0.00 0.00 70 1020.0
20260503023949 10 315 0.0 0.0 0.00 0.00 0.00 69 1020.0
20260503023744 9 315 0.0 0.0 0.00 0.00 0.00 70 1020.0
20260503023536 10 315 0.0 0.0 0.00 0.00 0.00 69 1020.0
20260503023443 9 315 0.0 0.0 0.00 0.00 0.00 70 1020.0
20260503023254 10 315 0.0 0.0 0.00 0.00 0.00 69 1020.0
20260503023159 10 308 0.0 0.0 0.00 0.00 0.00 70 1020.0
20260503022946 10 315 0.0 0.0 0.00 0.00 0.00 69 1020.0
20260503022804 10 308 0.0 0.0 0.00 0.00 0.00 70 1020.0
20260503022449 10 308 0.0 0.0 0.00 0.00 0.00 70 1020.0
20260503022314 10 307 0.0 0.0 0.00 0.00 0.00 68 1020.0
20260503022200 10 307 0.0 0.0 0.00 0.00 0.00 68 1020.0
20260503021952 10 307 0.0 0.0 0.00 0.00 0.00 68 1020.0
20260503021949 10 307 0.0 0.0 0.00 0.00 0.00 67 1020.0
20260503021825 10 307 0.0 0.0 0.00 0.00 0.00 68 1020.0
20260503021822 10 302 0.0 0.0 0.00 0.00 0.00 68 1019.5
20260503021558 10 307 0.0 0.0 0.00 0.00 0.00 67 1020.0
20260503021444 10 307 0.0 0.0 0.00 0.00 0.00 68 1020.0
20260503021333 10 307 0.0 0.0 0.00 0.00 0.00 67 1020.0
20260503021055 10 302 0.0 0.0 0.00 0.00 0.00 68 1019.5
20260503020947 10 307 0.0 0.0 0.00 0.00 0.00 67 1020.0
20260503020848 10 302 0.0 0.0 0.00 0.00 0.00 68 1019.5
20260503020628 10 302 0.0 0.0 0.00 0.00 0.00 68 1019.5
20260503020518 11 310 0.0 0.0 0.00 0.00 0.00 71 1019.0
20260503020450 10 302 0.0 0.0 0.00 0.00 0.00 68 1019.5
20260503020354 10 316 0.0 0.0 0.00 0.00 0.00 69 1019.1
20260503015942 10 316 0.0 0.0 0.00 0.00 0.00 69 1019.1
20260503015905 10 318 0.0 0.0 0.00 0.00 0.00 68 1019.0
20260503015444 10 318 0.0 0.0 0.00 0.00 0.00 68 1019.0
20260503015414 10 312 0.0 0.0 0.00 0.00 0.00 68 1019.0
20260503015325 11 310 0.0 0.0 0.00 0.00 0.00 71 1019.0
20260503014948 10 312 0.0 0.0 0.00 0.00 0.00 68 1019.0
20260503014923 11 310 0.0 0.0 0.00 0.00 0.00 71 1019.0
20260503014450 11 310 0.0 0.0 0.00 0.00 0.00 71 1019.0
20260503013944 11 310 0.0 0.0 0.00 0.00 0.00 74 1019.0
20260503013446 11 306 0.0 0.0 0.00 0.00 0.00 73 1019.0
20260503012952 11 307 0.0 0.0 0.00 0.00 0.00 75 1019.0
20260503012513 11 313 0.0 0.0 0.00 0.00 0.00 76 1019.0
20260503012024 11 313 0.0 0.0 0.00 0.00 0.00 78 1019.0
20260503011943 11 313 0.0 0.0 0.00 0.00 0.00 78 1019.0
20260503011533 11 319 0.0 0.0 0.00 0.00 0.00 78 1019.0
20260503011447 11 319 0.0 0.0 0.00 0.00 0.00 78 1019.0
20260503011044 11 311 0.0 0.0 0.00 0.00 0.00 78 1019.0
20260503010950 11 311 0.0 0.0 0.00 0.00 0.00 78 1019.0
20260503010553 11 305 0.0 0.0 0.00 0.00 0.00 78 1019.0
20260503010441 11 305 0.0 0.0 0.00 0.00 0.00 78 1019.0
20260503010104 11 313 0.0 0.0 0.00 0.00 0.00 76 1019.0
20260503005945 11 313 0.0 0.0 0.00 0.00 0.00 76 1019.0
20260503005613 12 298 0.0 0.0 0.00 0.00 0.00 73 1019.0
20260503005447 12 298 0.0 0.0 0.00 0.00 0.00 73 1019.0
20260503005125 12 312 0.0 0.0 0.00 0.00 0.00 70 1018.8
20260503004951 12 312 0.0 0.0 0.00 0.00 0.00 70 1018.8
20260503004633 12 315 0.0 0.0 0.00 0.00 0.00 67 1018.4